Palacios, TX

5:15 AM CDT on March 27, 2017 (GMT -0500)
Palacios Municipal

Weather History for KPSX - March, 2014

Change the Weather History Date:

Sunday, March 23, 2014

  Actual Average Record
Temperature  
Mean Temperature 60 °F -  
Max Temperature 66 °F 72 °F 82 °F (1958)
Min Temperature 55 °F 54 °F 36 °F (1968)
Degree Days  
Heating Degree Days 4    
Growing Degree Days 10 (Base 50)    
Moisture  
Dew Point 58 °F    
Average Humidity 92    
Maximum Humidity 100    
Minimum Humidity 78    
Precipitation  
Precipitation 0.08 in - - ()
Sea Level Pressure  
Sea Level Pressure 30.09 in    
Wind  
Wind Speed 13 mph (NNE)    
Max Wind Speed 25 mph    
Max Gust Speed 33 mph    
Visibility 5 miles    
Events Fog , Rain    
Averages and records for this station are not official NWS values.
T = Trace of Precipitation, MM = Missing Value Source: NWS Daily Summary

Daily Weather History Graph

Daily Weather History Graph

Search for Another Location

Airport or City:

Trip Planner

Search our weather history database for the weather conditions in past years. The results will help you decide how hot, cold, wet, or windy it might be!

Date:

Astronomy

Mar. 23, 2014 Rise Set
Actual Time 7:25 AM CDT 7:38 PM CDT
Civil Twilight 7:01 AM CDT 8:01 PM CDT
Nautical Twilight 6:34 AM CDT 8:29 PM CDT
Astronomical Twilight 6:06 AM CDT 8:57 PM CDT
Moon 1:33 AM CDT (3/23) 12:30 PM CDT (3/23)
Length of Visible Light 12h 59m
Length of Day
12h 12m
Waning Gibbous, 54% of the Moon is Illuminated
Mar 23
Waning Gibbous
Mar 23
Last Quarter
Mar 30
New
Apr 7
First Quarter
Apr 15
Full

Hourly Weather History & Observations

Time (CDT) Temp. Dew Point Humidity Pressure Visibility Wind Dir Wind Speed Gust Speed Precip Events Conditions
12:53 AM 64.9 °F 64.9 °F 100% 30.00 in 0.2 mi ESE 6.9 mph - N/A Fog Fog
1:53 AM 66.0 °F 66.0 °F 100% 30.00 in 1.0 mi ESE 8.1 mph - N/A   Mist
2:01 AM 66.0 °F 66.0 °F 100% 30.00 in 0.8 mi SE 9.2 mph - N/A   Mist
2:53 AM 66.9 °F 66.9 °F 100% 30.00 in 0.2 mi East 3.5 mph - N/A Fog Fog
3:53 AM 66.9 °F 66.0 °F 97% 30.00 in 0.2 mi NNE 6.9 mph - N/A Fog Fog
4:53 AM 66.9 °F 66.9 °F 100% 30.00 in 0.2 mi NE 4.6 mph - N/A Fog Fog
5:53 AM 66.9 °F 66.0 °F 97% 30.00 in 0.2 mi NNE 4.6 mph - N/A Fog Fog
6:53 AM 66.0 °F 66.0 °F 100% 30.02 in 0.8 mi North 11.5 mph - N/A   Mist
7:25 AM 62.1 °F 62.1 °F 100% 30.04 in 1.8 mi North 19.6 mph 25.3 mph 0.00 in Rain Light Rain
7:38 AM 60.1 °F 60.1 °F 100% 30.04 in 2.5 mi North 17.3 mph - 0.00 in   Overcast
7:45 AM 60.1 °F 59.0 °F 96% 30.05 in 4.0 mi North 18.4 mph 25.3 mph 0.00 in   Overcast
7:53 AM 59.0 °F 57.9 °F 96% 30.05 in 6.0 mi North 17.3 mph - 0.00 in   Overcast
8:39 AM 59.0 °F 57.0 °F 93% 30.08 in 7.0 mi North 17.3 mph - N/A   Overcast
8:53 AM 59.0 °F 55.9 °F 90% 30.09 in 6.0 mi North 20.7 mph - N/A   Overcast
9:53 AM 59.0 °F 55.0 °F 87% 30.11 in 7.0 mi North 18.4 mph 28.8 mph N/A   Overcast
10:53 AM 60.1 °F 55.0 °F 83% 30.13 in 7.0 mi North 20.7 mph 33.4 mph N/A   Overcast
11:53 AM 62.1 °F 55.0 °F 78% 30.12 in 7.0 mi North 25.3 mph 32.2 mph N/A   Overcast
12:22 PM 62.1 °F 55.0 °F 78% 30.13 in 8.0 mi North 23.0 mph 31.1 mph N/A   Overcast
12:53 PM 62.1 °F 55.0 °F 78% 30.12 in 9.0 mi North 24.2 mph 31.1 mph N/A   Overcast
1:53 PM 61.0 °F 55.0 °F 81% 30.11 in 10.0 mi North 20.7 mph - 0.00 in Rain Light Rain
2:53 PM 59.0 °F 55.9 °F 90% 30.10 in 3.0 mi North 16.1 mph - 0.00 in Rain Light Rain
3:15 PM 59.0 °F 57.0 °F 93% 30.10 in 2.5 mi North 17.3 mph - 0.01 in Rain Light Rain
3:25 PM 59.0 °F 57.0 °F 93% 30.09 in 3.0 mi North 16.1 mph - 0.01 in Rain Light Rain
3:39 PM 59.0 °F 57.0 °F 93% 30.10 in 2.5 mi North 17.3 mph - 0.02 in Rain Light Rain
3:49 PM 59.0 °F 57.2 °F 94% 30.09 in 2.5 mi North 17.3 mph - 0.04 in Rain Heavy Rain
3:50 PM 59.0 °F 57.0 °F 93% 30.09 in 2.5 mi North 18.4 mph - 0.04 in Rain Heavy Rain
4:01 PM 59.0 °F 57.0 °F 93% 30.09 in 2.5 mi North 17.3 mph - 0.02 in Rain Rain
4:14 PM 59.0 °F 57.0 °F 93% 30.09 in 3.0 mi North 15.0 mph - 0.02 in Rain Light Rain
4:53 PM 57.9 °F 55.9 °F 93% 30.09 in 2.5 mi North 18.4 mph - 0.02 in Rain Light Rain
5:10 PM 57.9 °F 55.9 °F 93% 30.10 in 3.0 mi North 19.6 mph 24.2 mph 0.00 in Rain Light Rain
5:35 PM 57.9 °F 55.0 °F 90% 30.10 in 2.0 mi North 17.3 mph - 0.01 in Rain Rain
5:48 PM 57.2 °F 55.4 °F 94% 30.09 in 3.0 mi NNE 23.0 mph - 0.01 in Rain Light Rain
6:27 PM 55.9 °F 54.0 °F 93% 30.11 in 7.0 mi NNE 17.3 mph 26.5 mph 0.00 in   Overcast
6:53 PM 55.9 °F 53.1 °F 90% 30.12 in 8.0 mi NNE 17.3 mph - 0.00 in   Overcast
7:21 PM 55.9 °F 53.1 °F 90% 30.15 in 6.0 mi North 15.0 mph - 0.01 in Rain Heavy Rain
7:53 PM 55.9 °F 53.1 °F 90% 30.15 in 8.0 mi NNE 12.7 mph - 0.02 in Rain Light Rain
8:27 PM 55.9 °F 54.0 °F 93% 30.15 in 9.0 mi NNE 10.4 mph - 0.00 in   Overcast
8:53 PM 55.9 °F 54.0 °F 93% 30.15 in 7.0 mi NNE 11.5 mph - 0.00 in Rain Light Rain
9:12 PM 55.9 °F 54.0 °F 93% 30.15 in 10.0 mi NNE 12.7 mph - 0.00 in Rain Light Rain
9:53 PM 57.0 °F 54.0 °F 89% 30.16 in 10.0 mi North 11.5 mph - 0.00 in   Overcast
10:53 PM 57.0 °F 54.0 °F 89% 30.18 in 10.0 mi North 10.4 mph - N/A   Overcast
11:53 PM 57.0 °F 54.0 °F 89% 30.17 in 10.0 mi North 10.4 mph - N/A   Overcast